Lid_Strength_Index
3 3 3 3 3 3 3 2 2 2 1 2 1 1 1 1 1 2 3 3 6 9 8 6 6 7 6 7 10 9 11 13 13 14 14 14 15 14 16 16 18 17 17 17 16 17 18 14 15 13 11 13 12 12
2 2 2 3 3 3 2 2 2 2 2 2 2 1 2 1 1 1 5 2 3 7 8 5 5 4 4 4 6 7 8 11 10 12 13 12 14 15 14 16 16 16 13 14 14 14 11 12 10 10 11 12 12 11
2 2 3 2 3 3 3 3 2 2 2 2 2 2 2 1 1 1 3 3 4 8 8 8 9 5 3 3 2 8 7 6 8 7 11 12 14 13 15 14 15 15 14 14 13 13 13 12 11 11 11 11 12 12
2 2 2 2 2 2 2 2 2 2 2 2 2 2 1 1 1 1 4 3 4 6 10 9 5 6 3 3 3 2 5 4 5 7 11 13 13 12 13 12 13 13 14 15 14 14 12 12 11 11 12 13 13 13
2 2 2 2 2 2 2 2 2 2 2 2 1 1 1 1 1 2 3 3 2 6 10 9 7 5 4 3 4 4 5 6 7 10 12 13 12 13 14 14 13 14 14 14 13 12 10 10 9 11 12 12 12 12
1 2 2 2 2 2 2 2 2 1 2 1 1 0 0 0 -0 2 7 4 2 3 8 12 7 7 5 4 4 4 5 5 6 10 11 11 11 11 13 14 11 12 13 10 10 11 9 11 11 11 11 11 13 13
2 2 2 2 2 2 2 1 1 1 -0 -0 -1 -1 -1 -1 0 4 6 3 0 1 7 10 10 7 6 5 6 6 6 8 9 10 11 11 11 10 12 14 13 13 12 11 11 12 13 14 11 13 12 13 14 16
2 2 2 2 2 2 1 1 0 -0 -1 -1 -1 -1 -1 -1 -0 3 1 -0 -0 3 5 10 10 9 6 8 8 7 8 9 9 10 11 11 11 12 13 11 10 11 12 13 12 13 11 12 14 16 18 17 16 16
2 2 2 2 2 1 1 1 0 0 -1 -1 -1 -1 2 3 4 3 -1 -1 0 4 9 9 11 12 6 7 7 8 8 10 9 10 10 10 11 13 11 11 10 11 13 12 13 16 17 15 14 17 17 17 15 17
3 2 2 1 1 1 0 0 0 -0 -1 -1 1 4 7 5 0 0 5 5 6 7 7 9 9 10 7 8 9 9 8 10 12 10 10 12 11 10 11 10 9 11 11 14 16 17 18 18 17 18 16 16 14 17
2 2 1 1 1 1 0 0 0 -0 -0 4 7 8 5 3 6 9 11 10 10 10 10 10 10 9 7 10 10 8 11 10 14 11 12 12 13 11 11 12 14 14 14 15 15 13 14 13 15 17 18 18 18 19
2 1 2 1 1 1 1 0 -0 3 5 5 5 5 6 10 11 13 15 14 14 13 13 11 10 8 8 9 10 9 11 11 14 10 12 14 12 14 12 15 17 17 16 16 15 14 14 14 15 16 19 20 20 21
1 1 1 1 0 0 -0 -0 -0 -0 2 5 7 10 11 13 15 15 18 17 18 15 13 11 10 8 8 8 11 10 13 13 10 13 14 12 18 17 18 18 19 18 18 19 20 20 20 21 19 18 21 22 22 22
2 1 1 0 -0 -0 -0 -0 -0 3 5 8 11 14 14 16 17 18 17 16 14 14 13 11 11 9 10 9 11 13 12 11 14 15 15 17 23 24 20 19 18 20 20 21 21 21 22 22 24 24 23 22 22 22
2 2 2 1 0 -0 -0 -0 3 7 10 12 14 15 17 20 20 20 20 16 14 11 11 11 10 10 11 12 12 12 14 16 14 15 17 22 26 24 21 20 20 21 22 22 22 23 23 24 25 26 26 24 23 23
4 3 4 2 2 2 1 4 8 10 14 15 16 18 19 17 17 16 15 15 12 11 13 13 14 14 14 14 14 15 16 17 15 18 22 26 25 23 22 21 21 21 22 23 23 24 24 24 25 26 26 26 25 25
3 5 3 3 2 3 4 9 11 15 15 17 18 20 18 17 17 17 16 14 13 15 16 17 18 18 16 14 16 15 15 14 16 24 28 28 26 26 25 22 22 22 22 23 24 24 26 26 25 25 27 28 28 28
8 6 4 3 5 7 13 14 14 15 18 20 17 19 20 20 18 16 16 18 16 15 19 17 17 18 18 19 18 15 17 22 24 25 26 27 27 26 24 23 23 23 24 24 24 24 24 24 26 28 28 28 29 29
5 6 5 5 8 13 16 17 17 20 23 23 21 22 23 21 22 21 22 20 22 21 16 18 19 20 18 18 15 18 22 22 21 23 25 26 25 26 25 23 23 23 24 24 24 25 25 25 26 27 27 27 28 28
5 4 5 8 9 15 17 20 21 20 22 23 23 23 23 22 23 23 24 23 20 19 19 19 19 18 17 18 21 19 21 23 24 24 24 25 25 25 24 23 23 23 24 24 25 25 26 26 26 26 27 27 28 29
9 10 8 15 21 23 25 28 24 25 24 22 24 22 22 24 24 24 22 24 18 18 17 20 23 26 31 30 28 27 23 22 22 21 22 25 25 25 24 23 23 22 22 23 24 24 24 26 26 26 27 28 28 28
18 8 18 17 21 24 25 29 25 25 23 24 23 23 24 23 24 24 27 19 19 25 28 27 28 29 27 27 28 29 28 27 25 22 23 23 25 25 25 24 23 23 23 23 23 25 25 25 25 26 27 27 27 27
12 15 20 20 19 21 24 27 24 25 21 22 23 22 24 25 25 25 22 25 27 29 31 30 31 32 31 30 31 29 31 26 23 22 21 21 21 22 22 22 22 24 24 24 23 24 25 24 25 26 26 26 26 27
14 23 25 27 25 25 26 26 28 26 26 26 26 23 23 23 24 23 24 27 26 29 29 29 29 26 26 27 26 27 28 27 24 21 21 20 21 21 21 22 21 22 23 23 23 24 24 25 25 25 25 25 26 27
19 24 24 25 25 24 24 26 26 24 28 33 28 27 27 29 25 26 24 23 26 28 29 28 27 25 26 26 26 26 28 26 23 22 23 22 23 22 23 24 24 22 21 23 25 25 25 24 25 25 25 25 26 27
28 27 26 27 25 24 28 25 27 27 31 28 30 31 28 23 22 22 26 29 27 30 32 31 30 28 24 24 25 25 23 24 21 23 24 21 20 21 23 24 24 24 23 21 23 25 25 24 24 25 25 25 26 27
29 29 28 26 27 27 27 29 31 30 29 27 30 27 27 26 28 30 29 29 29 29 30 30 29 29 27 24 25 27 26 25 22 22 23 23 23 20 20 21 22 23 23 21 22 22 23 24 24 25 26 25 25 25
33 33 31 28 25 28 28 28 27 30 34 37 35 30 28 29 29 30 30 29 30 31 31 29 28 28 27 26 25 25 25 24 23 23 23 23 25 26 24 22 22 20 21 21 22 23 23 24 25 25 26 27 28 26
34 33 33 26 23 26 31 31 32 34 35 39 33 34 33 35 36 36 33 33 33 33 29 29 28 27 27 27 27 28 27 24 21 21 22 23 22 24 26 24 23 22 22 21 20 22 23 24 25 25 26 27 28 26
33 33 32 29 28 29 31 34 33 35 35 37 40 38 38 38 38 41 39 35 33 33 33 32 30 28 27 26 27 26 28 29 29 23 21 22 21 26 26 25 25 24 22 22 21 21 21 25 25 28 28 28 28 29
34 33 32 31 31 31 32 33 34 35 36 37 38 36 36 38 38 42 41 39 37 32 31 31 28 29 28 27 27 27 27 29 30 31 32 30 28 27 27 26 26 24 22 24 25 26 27 26 27 28 28 29 29 28
36 34 34 30 31 33 33 33 31 31 32 32 31 35 35 36 35 35 37 37 35 34 34 33 32 31 32 31 29 29 29 29 29 31 31 29 29 29 28 28 28 26 26 27 27 27 26 27 27 27 28 30 30 30
41 36 33 32 30 30 33 34 30 29 28 29 32 32 32 30 30 32 37 40 38 39 37 36 35 34 33 32 31 31 30 32 29 24 26 28 29 29 30 30 28 27 27 28 28 28 28 29 29 30 30 30 31 31